Tracking 18980 objects as of 18-Feb-2018
HD Live streaming from Space Station
objects crossing your sky now

NOAA 16 DEB

Track NOAA 16 DEB now!
10-day predictions


NORAD ID: 42399
Int'l Code: 2000-055ST
Perigee: 850.5 km
Apogee: 871.2 km
Inclination: 98.9 °
Period: 102.0 minutes
Semi major axis: 7231 km
RCS: Unknown
Launch date: September 21, 2000
Source: United States (US)
Launch site: AIR FORCE WESTERN TEST RANGE (AFWTR)

Note: This is SATELLITE DEBRIS
aabbcc
Your satellite tracking list
Your tracking list is empty




NASA's NSSDC Master Catalog

Two Line Element Set (TLE):
1 42399U 00055ST  18047.04704531  .00000560  00000-0  33170-3 0  9999
2 42399  98.8674 120.8946 0014305  87.9466 272.3343 14.11656035 98186
Source of the keplerian elements: AFSPC